1484539201.04,19143,4.69,72450.3,-20.17,-21.17,-21.17,0,*6A
1484539202.29,19144,4.69,72450.0,-20.19,-21.17,-21.17,0,*63
1484539203.53,19145,4.69,72450.0,-20.19,-21.17,-21.17,0,*62
1484539204.82,19146,4.69,72452.5,-20.19,-21.27,-21.27,0,*61
1484539206.1,19147,4.69,72452.3,-20.17,-21.27,-21.27,0,*6E
1484539207.34,19148,4.69,72450.8,-20.17,-21.17,-21.27,0,*62
1484539208.56,19149,4.69,72448.8,-20.17,-21.17,-21.17,0,*60
1484539209.81,19150,4.69,72452.3,-20.19,-21.17,-21.17,0,*66
1484539211.1,19151,4.69,72450.3,-20.19,-21.27,-21.27,0,*67
1484539212.4,19152,4.69,72452.5,-20.19,-21.27,-21.27,0,*64
1484539213.64,19153,4.69,72452.8,-20.19,-21.17,-21.17,0,*65
1484539214.91,19154,4.69,72452.8,-20.19,-21.27,-21.17,0,*61
1484539216.15,19155,4.69,72450.3,-20.19,-21.17,-21.17,0,*63
1484539217.42,19156,4.69,72452.5,-20.19,-21.27,-21.17,0,*63
1484539218.7,19157,4.69,72450.5,-20.21,-21.23,-21.23,0,*6A
1484539219.97,19158,4.69,72454.5,-20.21,-21.33,-21.33,0,*65
1484539221.24,19159,4.69,72448.8,-20.19,-21.17,-21.27,0,*6C
1484539222.49,19160,4.69,72454.5,-20.17,-21.27,-21.17,0,*68
1484539223.78,19161,4.69,72452.0,-20.19,-21.27,-21.27,0,*64
1484539225.05,19162,4.69,72452.0,-20.21,-21.23,-21.33,0,*6D
1484539226.32,19163,4.69,72454.5,-20.21,-21.33,-21.33,0,*6D
1484539227.56,19164,4.69,72450.5,-20.21,-21.33,-21.39,0,*60
1484539228.83,19165,4.69,72454.3,-20.19,-21.33,-21.17,0,*66
1484539230.05,19166,4.69,72452.0,-20.21,-21.39,-21.39,0,*68
1484539231.34,19167,4.69,72454.3,-20.19,-21.33,-21.27,0,*67
1484539232.64,19168,4.69,72454.0,-20.19,-21.33,-21.27,0,*68
1484539233.9,19169,4.69,72454.0,-20.19,-21.43,-21.33,0,*6B
1484539235.12,19170,4.69,72450.0,-20.21,-21.39,-21.39,0,*6F
1484539236.34,19171,4.69,72452.5,-20.21,-21.47,-21.39,0,*67
1484539237.56,19172,4.69,72448.8,-20.21,-21.39,-21.47,0,*64
1484539238.78,19173,4.69,72454.5,-20.21,-21.47,-21.47,0,*6C
1484539240.0,19174,4.69,72452.3,-20.21,-21.47,-21.47,0,*6B
1484539241.22,19175,4.69,72454.5,-20.21,-21.47,-21.39,0,*63
1484539242.44,19176,4.69,72450.3,-20.21,-21.47,-21.47,0,*69
1484539243.66,19177,4.63,72450.8,-20.21,-21.39,-21.47,0,*61
1484539244.88,19178,4.69,72450.5,-20.21,-21.47,-21.47,0,*67
1484539246.1,19179,4.69,72452.5,-20.21,-21.47,-21.47,0,*66
1484539247.32,19180,4.69,72454.0,-20.21,-21.47,-21.47,0,*60
1484539248.58,19181,4.69,72450.8,-20.23,-21.47,-21.53,0,*66
1484539249.88,19182,4.69,72454.8,-20.23,-21.53,-21.53,0,*60
1484539251.15,19183,4.69,72452.5,-20.21,-21.53,-21.53,0,*63
1484539252.4,19184,4.69,72452.8,-20.21,-21.47,-21.53,0,*61
1484539253.61,19185,4.69,72452.0,-20.21,-21.63,-21.47,0,*63
1484539254.85,19186,4.69,72452.0,-20.23,-21.63,-21.39,0,*6B
1484539256.12,19187,4.63,72448.5,-20.23,-21.53,-21.63,0,*66
1484539257.42,19188,4.69,72452.0,-20.23,-21.53,-21.53,0,*6A
1484539258.69,19189,4.69,72452.0,-20.21,-21.53,-21.53,0,*69
1484539259.99,19190,4.69,72448.0,-20.23,-21.53,-21.53,0,*63
1484539261.23,19191,4.69,72448.8,-20.23,-21.63,-21.63,0,*62
1484539262.47,19192,4.69,72452.3,-20.21,-21.63,-21.53,0,*60
1484539263.73,19193,4.69,72450.0,-20.23,-21.63,-21.53,0,*63
1484539264.99,19194,4.69,72450.3,-20.23,-21.63,-21.53,0,*64
1484539266.21,19195,4.69,72450.8,-20.25,-21.63,-21.63,0,*60
1484539267.47,19196,4.69,72454.0,-20.23,-21.63,-21.53,0,*66
1484539268.7,19197,4.69,72452.3,-20.23,-21.63,-21.63,0,*64
1484539269.94,19198,4.69,72454.5,-20.25,-21.63,-21.53,0,*6E
1484539271.16,19199,4.69,72454.0,-20.25,-21.63,-21.63,0,*6C
1484539272.37,19200,4.69,72454.5,-20.25,-21.63,-21.63,0,*6F
1484539273.64,19201,4.69,72452.3,-20.25,-21.53,-21.53,0,*6E
1484539274.86,19202,4.69,72452.8,-20.25,-21.63,-21.63,0,*6D
1484539276.1,19203,4.69,72450.3,-20.25,-21.63,-21.67,0,*68
1484539277.34,19204,4.69,72452.5,-20.25,-21.63,-21.53,0,*68
1484539278.55,19205,4.69,72452.8,-20.25,-21.63,-21.63,0,*6A
1484539279.82,19206,4.69,72452.0,-20.27,-21.73,-21.57,0,*6D
1484539281.08,19207,4.69,72452.5,-20.27,-21.67,-21.73,0,*6F
1484539282.35,19208,4.69,72454.8,-20.27,-21.67,-21.73,0,*60
1484539283.65,19209,4.69,72452.8,-20.27,-21.67,-21.67,0,*64
1484539284.94,19210,4.63,72452.3,-20.27,-21.57,-21.57,0,*6C
1484539286.24,19211,4.69,72452.0,-20.27,-21.67,-21.67,0,*6D
1484539287.53,19212,4.69,72456.0,-20.27,-21.57,-21.67,0,*6D
1484539288.82,19213,4.69,72454.5,-20.27,-21.67,-21.57,0,*6C
1484539290.1,19214,4.63,72450.5,-20.25,-21.53,-21.53,0,*6A
1484539291.37,19215,4.69,72452.5,-20.31,-21.73,-21.67,0,*6B
1484539292.66,19216,4.69,72454.0,-20.31,-21.67,-21.67,0,*6D
1484539293.96,19217,4.69,72452.8,-20.31,-21.57,-21.67,0,*6F
1484539295.25,19218,4.69,72454.5,-20.27,-21.67,-21.67,0,*64
1484539296.55,19219,4.69,72454.0,-20.27,-21.67,-21.67,0,*65
1484539297.84,19220,4.63,72452.3,-20.27,-21.57,-21.57,0,*6F
1484539299.13,19221,4.69,72452.8,-20.27,-21.67,-21.57,0,*6D
1484539300.43,19222,4.69,72452.8,-20.27,-21.67,-21.67,0,*6D
1484539301.73,19223,4.69,72452.0,-20.31,-21.57,-21.67,0,*68
1484539303.01,19224,4.69,72454.0,-20.31,-21.57,-21.57,0,*6C
1484539304.3,19225,4.69,72452.8,-20.31,-21.67,-21.57,0,*6E
1484539305.59,19226,4.69,72454.5,-20.31,-21.57,-21.57,0,*6E
1484539306.87,19227,4.69,72454.0,-20.31,-21.57,-21.57,0,*6F
1484539308.16,19228,4.69,72454.8,-20.31,-21.57,-21.57,0,*60
1484539309.44,19229,4.69,72452.8,-20.31,-21.57,-21.57,0,*61
1484539310.73,19230,4.69,72454.3,-20.31,-21.67,-21.57,0,*6A
1484539312.03,19231,4.69,72450.5,-20.31,-21.67,-21.67,0,*68
1484539313.32,19232,4.69,72450.8,-20.31,-21.57,-21.67,0,*68
1484539314.56,19233,4.69,72454.0,-20.33,-21.63,-21.57,0,*6F
1484539315.78,19234,4.69,72452.5,-20.33,-21.63,-21.63,0,*6F
1484539317.02,19235,4.69,72454.0,-20.33,-21.63,-21.57,0,*69
1484539318.26,19236,4.69,72454.3,-20.33,-21.73,-21.57,0,*6B
1484539319.5,19237,4.69,72450.8,-20.33,-21.63,-21.57,0,*6B
1484539320.74,19238,4.69,72450.0,-20.33,-21.73,-21.57,0,*65
1484539321.98,19239,4.63,72450.0,-20.33,-21.63,-21.57,0,*65
1484539323.22,19240,4.69,72454.0,-20.33,-21.63,-21.57,0,*6B
1484539324.46,19241,4.69,72452.5,-20.33,-21.57,-21.47,0,*6C
1484539325.69,19242,4.69,72448.8,-20.33,-21.47,-21.47,0,*6E
1484539326.93,19243,4.69,72450.0,-20.33,-21.57,-21.47,0,*6E
1484539328.15,19244,4.69,72452.0,-20.33,-21.47,-21.47,0,*68
1484539329.37,19245,4.69,72452.8,-20.33,-21.47,-21.47,0,*69
1484539330.59,19246,4.69,72450.5,-20.33,-21.47,-21.47,0,*6A
1484539331.81,19247,4.63,72448.8,-20.33,-21.47,-21.47,0,*6B
1484539333.06,19248,4.69,72454.3,-20.33,-21.47,-21.33,0,*67
1484539334.3,19249,4.69,72452.8,-20.35,-21.47,-21.43,0,*67
1484539335.57,19250,4.69,72454.8,-20.35,-21.47,-21.33,0,*68
1484539336.78,19251,4.69,72452.5,-20.33,-21.43,-21.43,0,*6C
1484539338.02,19252,4.69,72452.3,-20.33,-21.43,-21.33,0,*68
1484539339.24,19253,4.69,72450.8,-20.33,-21.43,-21.43,0,*6E
1484539340.48,19254,4.69,72452.3,-20.33,-21.43,-21.33,0,*6E
1484539341.78,19255,4.69,72452.3,-20.31,-21.27,-21.27,0,*6A
1484539343.04,19256,4.69,72452.0,-20.33,-21.27,-21.33,0,*6E
1484539344.31,19257,4.69,72454.3,-20.35,-21.33,-21.43,0,*6B
1484539345.55,19258,4.69,72450.8,-20.33,-21.43,-21.33,0,*62
1484539346.84,19259,4.69,72452.8,-20.35,-21.33,-21.33,0,*62
1484539348.14,19260,4.63,72450.3,-20.35,-21.33,-21.33,0,*68
1484539349.43,19261,4.69,72450.8,-20.35,-21.33,-21.33,0,*69
1484539350.72,19262,4.69,72450.5,-20.35,-21.33,-21.33,0,*6A
1484539351.99,19263,4.69,72454.3,-20.33,-21.33,-21.33,0,*6D
1484539353.26,19264,4.69,72450.0,-20.33,-21.33,-21.33,0,*6A
1484539354.52,19265,4.69,72448.3,-20.35,-21.33,-21.43,0,*6A
1484539355.76,19266,4.69,72450.5,-20.33,-21.33,-21.43,0,*6F
1484539356.98,19267,4.69,72450.3,-20.33,-21.43,-21.43,0,*69
1484539358.25,19268,4.69,72452.0,-20.33,-21.33,-21.33,0,*66
1484539359.54,19269,4.69,72454.5,-20.35,-21.33,-21.33,0,*61
1484539360.8,19270,4.69,72450.8,-20.35,-21.43,-21.33,0,*6E
1484539362.07,19271,4.69,72454.8,-20.35,-21.43,-21.33,0,*6F
1484539363.33,19272,4.69,72450.5,-20.37,-21.33,-21.39,0,*63
1484539364.6,19273,4.69,72448.5,-20.33,-21.33,-21.33,0,*6C
1484539365.89,19274,4.63,72450.3,-20.35,-21.33,-21.33,0,*6D
1484539367.14,19275,4.69,72448.3,-20.33,-21.33,-21.43,0,*6D
1484539368.38,19276,4.69,72454.5,-20.33,-21.43,-21.33,0,*6E
1484539369.65,19277,4.69,72452.8,-20.33,-21.27,-21.27,0,*68
1484539370.92,19278,4.69,72448.3,-20.33,-21.33,-21.33,0,*67
1484539372.21,19279,4.69,72450.3,-20.35,-21.33,-21.33,0,*60
1484539373.5,19280,4.69,72448.0,-20.35,-21.33,-21.33,0,*66
1484539374.8,19281,4.69,72448.5,-20.35,-21.33,-21.33,0,*67
1484539376.06,19282,4.69,72450.0,-20.35,-21.43,-21.33,0,*63
1484539377.3,19283,4.69,72450.8,-20.37,-21.39,-21.39,0,*67
1484539378.59,19284,4.69,72454.3,-20.35,-21.33,-21.33,0,*62
1484539379.86,19285,4.69,72452.0,-20.35,-21.33,-21.43,0,*64
1484539381.15,19286,4.69,72452.0,-20.35,-21.33,-21.33,0,*60
1484539382.44,19287,4.69,72452.0,-20.35,-21.33,-21.33,0,*61
1484539383.73,19288,4.69,72448.0,-20.35,-21.33,-21.33,0,*6E
1484539385.0,19289,4.69,72452.8,-20.35,-21.33,-21.43,0,*68
1484539386.26,19290,4.69,72450.5,-20.35,-21.43,-21.33,0,*60
1484539387.55,19291,4.69,72448.8,-20.35,-21.33,-21.33,0,*66
1484539388.84,19292,4.69,72450.3,-20.35,-21.33,-21.33,0,*65
1484539390.11,19293,4.69,72452.3,-20.35,-21.43,-21.33,0,*63
1484539391.37,19294,4.69,72448.0,-20.35,-21.43,-21.33,0,*64
1484539392.67,19295,4.69,72452.3,-20.35,-21.33,-21.33,0,*62
1484539393.91,19296,4.69,72448.8,-20.37,-21.47,-21.39,0,*6A
1484539395.17,19297,4.69,72452.3,-20.37,-21.39,-21.33,0,*68
1484539396.43,19298,4.69,72452.5,-20.35,-21.43,-21.33,0,*68
1484539397.72,19299,4.69,72454.5,-20.35,-21.33,-21.33,0,*6E
1484539399.02,19300,4.69,72454.0,-20.35,-21.33,-21.33,0,*6F
1484539400.31,19301,4.69,72452.8,-20.35,-21.33,-21.33,0,*6E
1484539401.55,19302,4.69,72450.8,-20.37,-21.47,-21.39,0,*66
1484539402.81,19303,4.69,72454.3,-20.35,-21.43,-21.33,0,*6B
1484539404.11,19304,4.69,72448.8,-20.35,-21.27,-21.33,0,*6E
1484539405.4,19305,4.63,72448.0,-20.35,-21.33,-21.33,0,*6A
1484539406.64,19306,4.69,72452.0,-20.37,-21.39,-21.39,0,*6B
1484539407.9,19307,4.69,72450.0,-20.35,-21.43,-21.33,0,*6F
1484539409.19,19308,4.69,72454.5,-20.35,-21.33,-21.33,0,*67
1484539410.49,19309,4.69,72452.3,-20.35,-21.33,-21.33,0,*66
1484539411.75,19310,4.69,72448.8,-20.35,-21.43,-21.33,0,*69
1484539412.99,19311,4.69,72450.8,-20.37,-21.39,-21.39,0,*6D
1484539414.24,19312,4.69,72450.8,-20.33,-21.43,-21.27,0,*68
1484539415.53,19313,4.69,72452.0,-20.35,-21.33,-21.33,0,*6D
1484539416.79,19314,4.63,72448.5,-20.37,-21.39,-21.33,0,*62
1484539418.05,19315,4.69,72452.0,-20.37,-21.39,-21.33,0,*63
1484539419.34,19316,4.63,72448.5,-20.35,-21.33,-21.33,0,*68
1484539420.58,19317,4.69,72452.5,-20.37,-21.39,-21.39,0,*6B
1484539421.82,19318,4.69,72454.8,-20.37,-21.39,-21.39,0,*64
1484539423.12,19319,4.69,72452.8,-20.35,-21.33,-21.27,0,*62
1484539424.41,19320,4.69,72458.0,-20.35,-21.33,-21.33,0,*6D
1484539425.65,19321,4.69,72454.3,-20.37,-21.39,-21.39,0,*6E
1484539426.89,19322,4.69,72452.3,-20.37,-21.39,-21.39,0,*6D
1484539428.15,19323,4.69,72452.5,-20.35,-21.33,-21.43,0,*69
1484539429.45,19324,4.69,72452.0,-20.35,-21.33,-21.33,0,*69
1484539430.74,19325,4.63,72450.0,-20.35,-21.33,-21.33,0,*68
1484539431.98,19326,4.63,72448.5,-20.37,-21.39,-21.39,0,*69
1484539433.22,19327,4.63,72448.0,-20.37,-21.39,-21.39,0,*68
1484539434.48,19328,4.63,72448.5,-20.37,-21.47,-21.33,0,*64
1484539435.74,19329,4.63,72448.8,-20.37,-21.39,-21.33,0,*6C
1484539436.98,19330,4.63,72450.3,-20.37,-21.39,-21.39,0,*6E
1484539438.27,19331,4.63,72452.3,-20.35,-21.33,-21.33,0,*6D
1484539439.54,19332,4.69,72452.0,-20.35,-21.43,-21.33,0,*69
1484539440.83,19333,4.69,72454.8,-20.35,-21.33,-21.33,0,*6F
1484539442.07,19334,4.69,72452.8,-20.35,-21.39,-21.39,0,*68
1484539443.31,19335,4.63,72452.0,-20.35,-21.43,-21.47,0,*6D
1484539444.55,19336,4.69,72452.0,-20.37,-21.47,-21.39,0,*61
1484539445.79,19337,4.69,72452.3,-20.37,-21.39,-21.39,0,*69
1484539447.03,19338,4.63,72452.3,-20.37,-21.39,-21.47,0,*6F
1484539448.32,19339,4.69,72452.0,-20.35,-21.33,-21.33,0,*65
1484539449.59,19340,4.69,72454.0,-20.35,-21.43,-21.33,0,*6C
1484539450.85,19341,4.69,72452.5,-20.35,-21.33,-21.43,0,*6D
1484539452.09,19342,4.63,72450.3,-20.35,-21.43,-21.43,0,*69
1484539453.36,19343,4.69,72454.0,-20.37,-21.53,-21.39,0,*66
1484539454.6,19344,4.69,72452.8,-20.37,-21.47,-21.47,0,*6D
1484539455.87,19345,4.69,72452.8,-20.37,-21.53,-21.47,0,*69
1484539457.14,19346,4.69,72452.0,-20.37,-21.53,-21.47,0,*6A
1484539458.42,19347,4.63,72448.0,-20.37,-21.53,-21.47,0,*6B
1484539459.65,19348,4.63,72450.0,-20.37,-21.63,-21.63,0,*61
1484539460.95,19349,4.69,72452.8,-20.37,-21.53,-21.53,0,*60
1484539462.21,19350,4.63,72450.8,-20.37,-21.63,-21.53,0,*6B
1484539463.5,19351,4.69,72454.0,-20.37,-21.57,-21.53,0,*6D
1484539464.8,19352,4.69,72454.8,-20.37,-21.53,-21.53,0,*6A
1484539466.09,19353,4.69,72454.5,-20.37,-21.53,-21.53,0,*6B
1484539467.39,19354,4.63,72452.5,-20.37,-21.53,-21.53,0,*6C
1484539468.65,19355,4.63,72454.8,-20.37,-21.63,-21.53,0,*6E
1484539469.94,19356,4.69,72454.5,-20.35,-21.57,-21.57,0,*6C
1484539471.2,19357,4.69,72454.8,-20.37,-21.63,-21.53,0,*6C
1484539472.5,19358,4.63,72454.0,-20.37,-21.53,-21.53,0,*60
1484539473.73,19359,4.63,72452.3,-20.37,-21.63,-21.63,0,*61
1484539474.97,19360,4.69,72454.3,-20.37,-21.63,-21.63,0,*6B
1484539476.18,19361,4.69,72454.8,-20.39,-21.63,-21.63,0,*64
1484539477.44,19362,4.63,72452.5,-20.37,-21.67,-21.63,0,*6D
1484539478.68,19363,4.63,72452.0,-20.37,-21.63,-21.63,0,*68
1484539479.92,19364,4.69,72454.8,-20.39,-21.63,-21.53,0,*62
1484539481.15,19365,4.63,72452.8,-20.39,-21.63,-21.53,0,*63
1484539482.36,19366,4.63,72452.0,-20.39,-21.63,-21.63,0,*63
1484539483.57,19367,4.63,72448.5,-20.39,-21.63,-21.63,0,*62
1484539484.78,19368,4.69,72454.8,-20.39,-21.77,-21.63,0,*68
1484539486.02,19369,4.69,72452.5,-20.39,-21.67,-21.63,0,*68
1484539487.23,19370,4.69,72454.5,-20.39,-21.63,-21.63,0,*64
1484539488.47,19371,4.69,72454.3,-20.39,-21.67,-21.63,0,*61
1484539489.68,19372,4.63,72450.5,-20.39,-21.63,-21.63,0,*66
1484539490.97,19373,4.63,72452.0,-20.41,-21.57,-21.57,0,*68
1484539492.2,19374,4.69,72454.8,-20.39,-21.63,-21.67,0,*64
1484539493.44,19375,4.69,72452.5,-20.39,-21.63,-21.67,0,*65
1484539494.68,19376,4.63,72450.3,-20.39,-21.63,-21.53,0,*61
1484539495.89,19377,4.63,72450.5,-20.39,-21.63,-21.63,0,*63
1484539497.16,19378,4.69,72452.5,-20.41,-21.73,-21.67,0,*66
1484539498.43,19379,4.69,72452.3,-20.39,-21.67,-21.53,0,*6A
1484539499.67,19380,4.63,72448.8,-20.39,-21.53,-21.63,0,*68
1484539500.96,19381,4.69,72452.5,-20.41,-21.67,-21.57,0,*66
1484539502.17,19382,4.69,72452.5,-20.39,-21.63,-21.63,0,*69
1484539503.44,19383,4.63,72448.3,-20.39,-21.67,-21.53,0,*6F
1484539504.73,19384,4.63,72448.8,-20.41,-21.67,-21.57,0,*63
1484539506.03,19385,4.63,72450.0,-20.41,-21.67,-21.67,0,*61
1484539507.24,19386,4.69,72450.5,-20.39,-21.63,-21.63,0,*6D
1484539508.54,19387,4.63,72450.3,-20.41,-21.67,-21.67,0,*63
1484539509.84,19388,4.63,72448.5,-20.41,-21.67,-21.67,0,*6C
1484539511.13,19389,4.63,72444.0,-20.41,-21.67,-21.67,0,*6D
1484539512.4,19390,4.63,72448.0,-20.39,-21.57,-21.67,0,*69
1484539513.7,19391,4.69,72450.8,-20.41,-21.67,-21.67,0,*64
1484539514.97,19392,4.63,72448.5,-20.41,-21.73,-21.57,0,*61
1484539516.2,19393,4.69,72452.5,-20.41,-21.73,-21.73,0,*66
1484539517.48,19394,4.63,72446.8,-20.41,-21.73,-21.67,0,*64
1484539518.75,19395,4.63,72450.0,-20.41,-21.73,-21.67,0,*65
1484539520.02,19396,4.63,72448.5,-20.41,-21.67,-21.73,0,*66
1484539521.29,19397,4.63,72450.5,-20.41,-21.73,-21.83,0,*6D
1484539522.53,19398,4.69,72452.5,-20.43,-21.67,-21.73,0,*6A
1484539523.76,19399,4.69,72454.3,-20.41,-21.73,-21.73,0,*6C
1484539524.98,19400,4.69,72450.5,-20.43,-21.73,-21.73,0,*69
1484539526.21,19401,4.69,72450.5,-20.43,-21.83,-21.73,0,*67
1484539527.45,19402,4.63,72450.5,-20.43,-21.83,-21.73,0,*64
1484539528.72,19403,4.63,72448.8,-20.43,-21.87,-21.83,0,*6E
1484539530.02,19404,4.69,72450.5,-20.45,-21.87,-21.87,0,*6B
1484539531.23,19405,4.69,72450.5,-20.43,-21.73,-21.73,0,*6C
1484539532.5,19406,4.63,72448.5,-20.41,-21.83,-21.73,0,*62
1484539533.77,19407,4.63,72448.5,-20.45,-21.87,-21.77,0,*67
1484539535.01,19408,4.63,72448.5,-20.43,-21.73,-21.83,0,*6E
1484539536.28,19409,4.63,72448.5,-20.45,-21.77,-21.87,0,*69
1484539537.55,19410,4.69,72452.5,-20.45,-21.87,-21.77,0,*61
1484539538.82,19411,4.63,72448.8,-20.45,-21.77,-21.87,0,*60
1484539540.03,19412,4.69,72452.5,-20.43,-21.73,-21.73,0,*6A
1484539541.28,19413,4.63,72450.0,-20.45,-21.73,-21.77,0,*69
1484539542.52,19414,4.63,72448.0,-20.43,-21.73,-21.83,0,*63
1484539543.76,19415,4.63,72452.5,-20.45,-21.77,-21.73,0,*6F
1484539545.0,19416,4.69,72452.8,-20.45,-21.77,-21.77,0,*68
1484539546.27,19417,4.63,72452.8,-20.45,-21.87,-21.77,0,*66
1484539547.52,19418,4.63,72450.0,-20.45,-21.77,-21.77,0,*66
1484539548.79,19419,4.63,72452.3,-20.45,-21.77,-21.87,0,*68
1484539550.09,19420,4.63,72452.0,-20.45,-21.87,-21.87,0,*6D
1484539551.36,19421,4.63,72448.3,-20.45,-21.87,-21.77,0,*63
1484539552.63,19422,4.63,72450.5,-20.45,-21.77,-21.87,0,*60
1484539553.93,19423,4.63,72448.8,-20.45,-21.87,-21.87,0,*6E
1484539555.17,19424,4.63,72450.0,-20.45,-21.77,-21.77,0,*69
1484539556.41,19425,4.63,72448.5,-20.45,-21.77,-21.77,0,*68
1484539557.65,19426,4.69,72452.5,-20.45,-21.77,-21.77,0,*6B
1484539558.9,19427,4.69,72450.3,-20.47,-21.87,-21.77,0,*67
1484539560.17,19428,4.63,72448.5,-20.45,-21.87,-21.73,0,*6E
1484539561.44,19429,4.63,72448.5,-20.45,-21.77,-21.87,0,*6B
1484539562.66,19430,4.63,72448.8,-20.47,-21.77,-21.77,0,*6E
1484539563.88,19431,4.63,72450.0,-20.47,-21.77,-21.77,0,*6F
1484539565.09,19432,4.63,72446.0,-20.47,-21.77,-21.73,0,*68
1484539566.33,19433,4.63,72450.5,-20.49,-21.73,-21.73,0,*63
1484539567.54,19434,4.63,72450.0,-20.47,-21.77,-21.73,0,*6E
1484539568.75,19435,4.63,72450.5,-20.47,-21.73,-21.73,0,*6B
1484539569.97,19436,4.63,72448.5,-20.47,-21.77,-21.73,0,*6C
1484539571.21,19437,4.63,72450.3,-20.49,-21.73,-21.73,0,*67
1484539572.42,19438,4.63,72448.3,-20.47,-21.63,-21.63,0,*66
1484539573.63,19439,4.69,72452.0,-20.47,-21.63,-21.73,0,*66
1484539574.87,19440,4.63,72448.5,-20.49,-21.73,-21.77,0,*63
1484539576.09,19441,4.69,72452.5,-20.47,-21.77,-21.63,0,*6D
1484539577.33,19442,4.63,72448.0,-20.49,-21.73,-21.73,0,*65
1484539578.57,19443,4.63,72448.5,-20.49,-21.73,-21.73,0,*64
1484539579.78,19444,4.69,72452.5,-20.47,-21.73,-21.63,0,*6C
1484539581.0,19445,4.69,72452.8,-20.47,-21.63,-21.63,0,*6C
1484539582.24,19446,4.69,72454.3,-20.49,-21.63,-21.63,0,*61
1484539583.47,19447,4.69,72452.0,-20.49,-21.63,-21.63,0,*60
1484539584.69,19448,4.63,72448.5,-20.47,-21.73,-21.63,0,*60
1484539585.93,19449,4.63,72450.8,-20.49,-21.73,-21.73,0,*6E
1484539587.17,19450,4.69,72452.0,-20.49,-21.77,-21.63,0,*63
1484539588.41,19451,4.63,72450.3,-20.49,-21.63,-21.73,0,*66
1484539589.65,19452,4.63,72450.3,-20.49,-21.73,-21.63,0,*65
1484539590.9,19453,4.63,72450.3,-20.49,-21.73,-21.63,0,*64
1484539592.14,19454,4.63,72452.0,-20.49,-21.73,-21.63,0,*63
1484539593.38,19455,4.63,72448.8,-20.49,-21.73,-21.63,0,*62
1484539594.59,19456,4.63,72448.3,-20.47,-21.63,-21.63,0,*6E
1484539595.81,19457,4.69,72454.5,-20.47,-21.63,-21.63,0,*6F
1484539597.04,19458,4.63,72448.0,-20.49,-21.63,-21.63,0,*6E
1484539598.28,19459,4.63,72452.0,-20.49,-21.63,-21.63,0,*6F
1484539599.53,19460,4.69,72458.0,-20.51,-21.77,-21.83,0,*67
1484539600.74,19461,4.69,72452.8,-20.51,-21.77,-21.77,0,*6D
1484539601.98,19462,4.63,72448.0,-20.51,-21.67,-21.77,0,*6F
1484539603.23,19463,4.63,72448.0,-20.51,-21.77,-21.67,0,*6E
1484539604.47,19464,4.63,72452.8,-20.49,-21.73,-21.73,0,*61
1484539605.69,19465,4.63,72450.3,-20.51,-21.77,-21.77,0,*69
1484539606.93,19466,4.69,72452.5,-20.51,-21.77,-21.83,0,*61
1484539608.19,19467,4.69,72454.5,-20.51,-21.83,-21.83,0,*6B
1484539609.44,19468,4.69,72454.3,-20.51,-21.67,-21.77,0,*65
1484539610.68,19469,4.63,72448.5,-20.51,-21.77,-21.67,0,*64
1484539611.95,19470,4.63,72448.8,-20.51,-21.83,-21.67,0,*67
1484539613.16,19471,4.63,72450.5,-20.51,-21.77,-21.77,0,*6C
1484539614.41,19472,4.63,72450.3,-20.51,-21.77,-21.67,0,*6E
1484539615.62,19473,4.63,72452.3,-20.51,-21.77,-21.77,0,*6E
1484539616.84,19474,4.63,72452.5,-20.55,-21.77,-21.77,0,*6D
1484539618.09,19475,4.63,72450.5,-20.51,-21.77,-21.67,0,*69
1484539619.3,19476,4.63,72452.8,-20.51,-21.77,-21.77,0,*6B
1484539620.54,19477,4.63,72448.8,-20.51,-21.83,-21.77,0,*61
1484539621.78,19478,4.63,72450.5,-20.51,-21.83,-21.77,0,*6E
1484539623.03,19479,4.63,72448.5,-20.51,-21.83,-21.77,0,*6F
1484539624.27,19480,4.63,72448.8,-20.51,-21.83,-21.77,0,*69
1484539625.51,19481,4.63,72452.0,-20.51,-21.77,-21.83,0,*68
1484539626.73,19482,4.69,72452.5,-20.51,-21.77,-21.77,0,*60
1484539627.99,19483,4.63,72454.8,-20.55,-21.83,-21.83,0,*65
1484539629.21,19484,4.63,72448.5,-20.55,-21.77,-21.77,0,*62
1484539630.46,19485,4.63,72452.5,-20.55,-21.77,-21.83,0,*68
1484539631.7,19486,4.69,72454.0,-20.51,-21.77,-21.83,0,*6F
1484539632.96,19487,4.69,72452.5,-20.55,-21.83,-21.83,0,*61
1484539634.21,19488,4.69,72452.3,-20.55,-21.77,-21.67,0,*6F
1484539635.46,19489,4.69,72454.0,-20.55,-21.67,-21.77,0,*6E
1484539636.68,19490,4.63,72452.5,-20.55,-21.77,-21.77,0,*67
1484539637.92,19491,4.69,72454.8,-20.55,-21.77,-21.67,0,*67
1484539639.17,19492,4.69,72452.5,-20.55,-21.67,-21.77,0,*64
1484539640.41,19493,4.63,72448.3,-20.55,-21.67,-21.77,0,*65
1484539641.68,19494,4.63,72450.0,-20.55,-21.83,-21.67,0,*69
1484539642.93,19495,4.63,72452.3,-20.55,-21.77,-21.67,0,*63
1484539644.2,19496,4.63,72450.0,-20.55,-21.67,-21.67,0,*61
1484539645.42,19497,4.63,72448.5,-20.55,-21.77,-21.77,0,*60
1484539646.67,19498,4.69,72454.8,-20.55,-21.77,-21.67,0,*6E
1484539647.91,19499,4.69,72454.0,-20.55,-21.67,-21.77,0,*6F
1484539649.16,19500,4.63,72450.8,-20.55,-21.77,-21.67,0,*6E
1484539650.41,19501,4.69,72454.0,-20.55,-21.77,-21.67,0,*6F
1484539651.68,19502,4.63,72448.5,-20.55,-21.67,-21.67,0,*6D
1484539652.92,19503,4.69,72452.5,-20.55,-21.67,-21.63,0,*68
1484539654.16,19504,4.63,72450.5,-20.57,-21.73,-21.73,0,*69
1484539655.46,19505,4.69,72452.8,-20.57,-21.67,-21.67,0,*68
1484539656.68,19506,4.69,72456.0,-20.51,-21.77,-21.63,0,*68
1484539657.95,19507,4.69,72454.5,-20.57,-21.73,-21.67,0,*6F
1484539659.22,19508,4.63,72452.5,-20.55,-21.67,-21.67,0,*67
1484539660.52,19509,4.63,72448.5,-20.57,-21.57,-21.67,0,*67
1484539661.79,19510,4.63,72450.8,-20.57,-21.67,-21.73,0,*69
1484539663.05,19511,4.63,72452.3,-20.57,-21.67,-21.73,0,*68
1484539664.35,19512,4.63,72454.3,-20.57,-21.67,-21.67,0,*6E
1484539665.65,19513,4.63,72454.3,-20.57,-21.67,-21.57,0,*6C
1484539666.95,19514,4.63,72452.0,-20.57,-21.67,-21.67,0,*68
1484539668.24,19515,4.63,72454.0,-20.57,-21.57,-21.57,0,*69
1484539669.53,19516,4.69,72454.0,-20.57,-21.67,-21.57,0,*69
1484539670.82,19517,4.63,72454.0,-20.57,-21.67,-21.57,0,*68
1484539672.12,19518,4.63,72450.0,-20.57,-21.67,-21.67,0,*64
1484539673.42,19519,4.63,72448.3,-20.57,-21.57,-21.67,0,*66
1484539674.69,19520,4.63,72452.3,-20.59,-21.67,-21.67,0,*61
1484539675.96,19521,4.63,72448.5,-20.59,-21.67,-21.57,0,*63
1484539677.23,19522,4.63,72448.3,-20.59,-21.67,-21.67,0,*63
1484539678.53,19523,4.63,72454.8,-20.57,-21.67,-21.83,0,*66
1484539679.83,19524,4.69,72454.0,-20.57,-21.67,-21.67,0,*6B
1484539681.12,19525,4.63,72454.0,-20.57,-21.57,-21.57,0,*6A
1484539682.38,19526,4.63,72450.3,-20.59,-21.57,-21.57,0,*67
1484539683.67,19527,4.63,72452.5,-20.57,-21.67,-21.57,0,*6B
1484539684.96,19528,4.63,72450.3,-20.57,-21.67,-21.57,0,*64
1484539686.26,19529,4.63,72452.0,-20.57,-21.57,-21.67,0,*65
1484539687.56,19530,4.63,72452.3,-20.57,-21.67,-21.67,0,*6E
1484539688.85,19531,4.63,72452.3,-20.57,-21.67,-21.57,0,*6C
1484539690.15,19532,4.63,72450.8,-20.57,-21.67,-21.57,0,*6F
1484539691.44,19533,4.63,72452.0,-20.57,-21.57,-21.57,0,*6D
1484539692.73,19534,4.63,72454.0,-20.57,-21.57,-21.67,0,*69
1484539694.03,19535,4.63,72448.0,-20.57,-21.57,-21.67,0,*68
1484539695.33,19536,4.63,72450.0,-20.57,-21.67,-21.67,0,*68
1484539696.63,19537,4.63,72452.0,-20.57,-21.67,-21.67,0,*69
1484539697.9,19538,4.63,72450.8,-20.59,-21.57,-21.67,0,*6B
1484539699.16,19539,4.63,72452.0,-20.59,-21.57,-21.57,0,*69
1484539700.46,19540,4.63,72450.5,-20.57,-21.57,-21.67,0,*6A
1484539701.75,19541,4.63,72448.3,-20.57,-21.67,-21.57,0,*6B
1484539703.04,19542,4.63,72448.5,-20.57,-21.57,-21.57,0,*6B